Location: ???????
(52.3000°N, 54.4667°E)
Time: 16:41:08
(UTC+00:00)

Cosmos 1758 Rocket - Pass Details

Date: 24 January 2020
Orbit: 603 x 635 km, 82.5° (Epoch: 21 February)

Event Time Altitude Azimuth Distance (km) Brightness Sun altitude
Rises 14:59:41 0° 205° (SSW) 2,847 7.4 -19.0°
Reaches altitude 10° 15:01:57 10° 211° (SSW) 1,948 6.6 -19.3°
Maximum altitude 15:06:07 47° 286° (WNW) 804 4.5 -19.9°
Drops below altitude 10° 15:10:19 10° 1° (N) 1,967 6.1 -20.6°
Enters shadow 15:12:30 - 7° (N) 2,830 6.8 -20.9°
